STARLINK-3966 (52552 NORAD) Tracking and Keplerian Element Data

This shows tracking and keplerian element data for the satellite.

Feedback or suggestion? Click here.




ElementValue
Catalog52552
NameSTARLINK-3966
Epoch Orbit130
Epoch Day167.08334491
Epoch Year2022
RAAN130.4754
Inclination53.2175
Eccentricity0.0001431
Argument of Perigee59.1432
Mean Anonmoly34.7263
Mean Motion15.49926753
Decay Rate-0.00043143
L11 52552U 22051V 22167.08334491 -.00043143 00000+0 -75523-3 0 9990
L22 52552 53.2175 130.4754 0001431 59.1432 34.7263 15.49926753 1301

Live tracking and technical data element details for STARLINK-3966 (NORAD 52552). STARLINK-3966 can be tracked NOW for your location showing map with azimuth and elevation plus other details from your city location.

Track the satellite on the map from your city or location and see movement details for azimuth, elevation, latitude, longitude, range, height, and movement on the map or in text.







IsCatalogInMostPopularTable: catalog: 52552, numindb: 3
Update: records affected: 1



GetName: 52552 STARLINK-3966

Hit Count: updated at: Mon, 27 Jun 2022 05:05:40 GMT